Preview of NWS' New Version of Forecast
This preview is not operational and should not be used for support decisions.

Regional Weather Roundup (RWR)

Issued by National Weather Service (NWS)

                            
000
ASUS46 KSEW 181810
RWRWA 

WASHINGTON REGIONAL WEATHER ROUNDUP
NATIONAL WEATHER SERVICE SEATTLE WA
1100 AM PDT THU APR 18 2019

NOTE:"FAIR" INDICATES FEW OR NO CLOUDS BELOW 12,000 FEET WITH NO 
SIGNIFICANT WEATHER AND/OR OBSTRUCTIONS TO VISIBILITY.

WAZ507-509-555>559-181900-
SEATTLE, TACOMA, EVERETT, AND VICINITY
  
CITY           SKY/WX    TMP DP  RH WIND       PRES   REMARKS
EVERETT        CLOUDY    53  47  79 SE9       30.23F                  
6HR MIN TEMP:  50; 6HR MAX TEMP:  53; 6HR PCP:  0.14;                

BOEING FIELD   CLOUDY    58  48  69 SE7       30.23F                  
6HR MIN TEMP:  53; 6HR MAX TEMP:  58; 6HR PCP:  0.06;                

RENTON         CLOUDY    58  49  72 S6        30.23F                  
6HR MIN TEMP:  52; 6HR MAX TEMP:  58; 6HR PCP:  0.01;                

SEATAC AIRPORT PTSUNNY   57  50  77 S6        30.23S                  
6HR MIN TEMP:  53; 6HR MAX TEMP:  57; 6HR PCP:  0.04;                

JBLM-MCCHORD   NOT AVBL                                               
PUYALLUP       CLOUDY    57  52  82 CALM      30.23F                  
BREMERTON      CLOUDY    54  50  86 SW8       30.23F                  
6HR MIN TEMP:  49; 6HR MAX TEMP:  54; 6HR PCP:  0.05;                

JBLM-FT LEWIS  CLOUDY    55  55  99 S3        30.22F                  
6HR MIN TEMP:  50; 6HR MAX TEMP:  55; 6HR PCP:  0.02;                

TACOMA NARROWS LGT RAIN  55  49  80 CALM      30.24F                  
6HR MIN TEMP:  50; 6HR MAX TEMP:  55; 6HR PCP:  0.04;                

$$
 
WAZ001-503-506-510-514-515-181900-
NORTH INTERIOR
  
CITY           SKY/WX    TMP DP  RH WIND       PRES   REMARKS
BELLINGHAM     LGT RAIN  53  49  86 NE7       30.22S FOG              
6HR MIN TEMP:  51; 6HR MAX TEMP:  53; 6HR PCP:  0.20;                

FRIDAY HARBOR  CLOUDY    53  48  83 E12       30.21F                  
6HR MIN TEMP:  50; 6HR MAX TEMP:  53; 6HR PCP:  0.03;                

EASTSOUND      LGT RAIN  54  50  87 E7        30.19F                  
PORT ANGELES   FOG       50  49  96 VRB3      30.19S VSB 1/2          
6HR MIN TEMP:  49; 6HR MAX TEMP:  52; 6HR PCP:  0.18;                

EDIZ HOOK      CLOUDY    50  49  99 NW5       30.19R                  
6HR MIN TEMP:  48; 6HR MAX TEMP:  50; 6HR PCP:  0.09;                

PORT TOWNSEND  CLOUDY    54  52  94 SE8G15    30.18S                  
NAS WHIDBEY    CLOUDY    58  47  66 SE10      30.24S                  
6HR MIN TEMP:  54; 6HR MAX TEMP:  58; 6HR PCP:  0.14;                

ARLINGTON      LGT RAIN  55  47  74 SE7       30.23S                  
6HR MIN TEMP:  50; 6HR MAX TEMP:  55; 6HR PCP:  0.19;                

BURLINGTON     MOSUNNY   57  50  77 E7        30.22S                  
$$
 
WAZ020-022-039-040-504-511-512-181900-
SOUTHWEST INTERIOR
  
CITY           SKY/WX    TMP DP  RH WIND       PRES   REMARKS
SHELTON        CLOUDY    56  51  84 CALM      30.21F                  
6HR MIN TEMP:  51; 6HR MAX TEMP:  56; 6HR PCP:  0.05;                

OLYMPIA        CLOUDY    54  48  80 CALM      30.24S                  
6HR MIN TEMP:  50; 6HR MAX TEMP:  55; 6HR PCP:  0.03;                

CHEHALIS       CLOUDY    57  50  77 S6        30.24S                  
KELSO          CLOUDY    58  49  72 S7        30.25F                  
6HR MIN TEMP:  49; 6HR MAX TEMP:  58; 6HR PCP:  0.01;                

VANCOUVER      MOSUNNY   58  46  64 SW5       30.25F                  
6HR MIN TEMP:  44; 6HR MAX TEMP:  59;                                

SCAPPOOSE, OR  MOSUNNY   61  47  59 CALM      30.25S                  
6HR MIN TEMP:  46; 6HR MAX TEMP:  61;                                

PORTLAND, OR   PTSUNNY   60  47  61 E3        30.24F                  
6HR MIN TEMP:  47; 6HR MAX TEMP:  61;                                

$$
 
WAZ021-516-517-181900-
WASHINGTON COAST
  
CITY           SKY/WX    TMP DP  RH WIND       PRES   REMARKS
FORKS          CLOUDY    52  51  97 VRB6      30.18S                  
6HR MIN TEMP:  50; 6HR MAX TEMP:  52; 6HR PCP:  0.33;                

HOQUIAM        CLOUDY    54  54 100 E7        30.22S                  
6HR MIN TEMP:  50; 6HR MAX TEMP:  55; 6HR PCP:  0.05;                

ASTORIA, OR    CLOUDY    56  51  84 N5        30.22S                  
6HR MIN TEMP:  48; 6HR MAX TEMP:  56; 6HR PCP:  0.02;                

$$
 
WAZ019-023-024-040-567>569-181900-
CASCADE MOUNTAINS AND COLUMBIA GORGE
  
CITY           SKY/WX    TMP DP  RH WIND       PRES   REMARKS
STAMPEDE PASS  CLOUDY    49  33  54 CALM      30.25R                  
6HR MIN TEMP:  42; 6HR MAX TEMP:  50; 6HR PCP:  0.09;                

TROUTDALE, OR  MOSUNNY   61  47  59 E8        30.24F                  
6HR MIN TEMP:  44; 6HR MAX TEMP:  62;                                

HOOD RIVER, OR PTCLDY    59  43  55 MISG      30.24F                  
THE DALLES, OR PTSUNNY   61  46  57 NW3       30.24F                  
6HR MIN TEMP:  44; 6HR MAX TEMP:  61;                                

$$

WAZ026-027-041>044-520-521-181900-
EAST SLOPES
  
CITY           SKY/WX    TMP DP  RH WIND       PRES   REMARKS
OMAK           CLOUDY    53  45  74 SE6       30.23F                  
6HR MIN TEMP:  49; 6HR MAX TEMP:  53; 6HR PCP:  0.03;                

WENATCHEE      CLOUDY    55  41  59 SE5       30.21F                  
6HR MIN TEMP:  51; 6HR MAX TEMP:  55; 6HR PCP: TRACE;                

ELLENSBURG     LGT RAIN  54  43  66 CALM      30.23S                  
6HR MIN TEMP:  46; 6HR MAX TEMP:  56; 6HR PCP: TRACE;                

YAKIMA         MOSUNNY   62  43  49 CALM      30.23S                  
6HR MIN TEMP:  48; 6HR MAX TEMP:  62;                                

SUNNYSIDE ARPT CLOUDY    63  44  50 CALM      30.23S                  
6HR MIN TEMP:  42; 6HR MAX TEMP:  63;                                

YAKIMA TC      MOCLDY    58  42  54 CALM      30.22R                  
6HR MIN TEMP:  46; 6HR MAX TEMP:  59; 6HR PCP:  0.01;                

$$

WAZ028-034-035-181900-
COLUMBIA BASIN
  
CITY           SKY/WX    TMP DP  RH WIND       PRES   REMARKS
EPHRATA        CLOUDY    56  41  57 NE5       30.24R                  
6HR MIN TEMP:  43; 6HR MAX TEMP:  57; 6HR PCP: TRACE;                

MOSES LAKE     CLOUDY    60  43  53 SE5       30.24S                  
6HR MIN TEMP:  46; 6HR MAX TEMP:  60;                                

PASCO          MOSUNNY   69  43  38 W7        30.23S                  
6HR MIN TEMP:  42; 6HR MAX TEMP:  69;                                

RICHLAND ARPT  PTCLDY    66  45  46 CALM      30.22F                  
6HR MIN TEMP:  42; 6HR MAX TEMP:  66;                                

HERMISTON, OR  SUNNY     68  47  46 NW8       30.23F                  
6HR MIN TEMP:  43; 6HR MAX TEMP:  68;                                

$$

WAZ036>038-181900-
NORTHEAST WASHINGTON
  
CITY           SKY/WX    TMP DP  RH WIND       PRES   REMARKS
SPOKANE GEIGER CLOUDY    54  38  54 S10       30.25F                  
6HR MIN TEMP:  42; 6HR MAX TEMP:  54; 6HR PCP: TRACE;                

SPOKANE FELTS  CLOUDY    57  39  51 SW6       30.26S                  
6HR MIN TEMP:  45; 6HR MAX TEMP:  57;                                

FAIRCHILD AFB  CLOUDY    52  41  65 S8        30.25S                  
6HR MIN TEMP:  41; 6HR MAX TEMP:  52; 6HR PCP: TRACE;                

COEURDALENE,ID CLOUDY    54  39  57 S8        30.26F                  
6HR MIN TEMP:  44; 6HR MAX TEMP:  54; 6HR PCP: TRACE;                

DEER PARK      CLOUDY    53  40  61 S3        30.26F                  
6HR MIN TEMP:  43; 6HR MAX TEMP:  54;                                

$$

WAZ029>033-181900-
SOUTHEAST WASHINGTON
  
CITY           SKY/WX    TMP DP  RH WIND       PRES   REMARKS
PULLMAN        PTSUNNY   58  42  55 SE8       30.28F                  
6HR MIN TEMP:  42; 6HR MAX TEMP:  58;                                

LEWISTON, ID   CLOUDY    57  43  59 VRB3      30.27F                  
6HR MIN TEMP:  43; 6HR MAX TEMP:  57;                                

WALLA WALLA    SUNNY     69  40  34 SW13      30.23F                  
6HR MIN TEMP:  48; 6HR MAX TEMP:  70;                                

PENDLETON, OR  SUNNY     65  43  44 SE5       30.23F                  
6HR MIN TEMP:  42; 6HR MAX TEMP:  65;                                

$$